World > North America > United States > New Jersey

Sayreville, New Jersey Regional Weather

Lat: 40.46N, Lon: 74.36W
Wx Zone: NJZ012
Feedback

Sayreville, NJ Regional Weather

Expires:201910240500;;180107
ASUS41 KPHI 240413
RWRPHI

REGIONAL WEATHER ROUNDUP
NATIONAL WEATHER SERVICE MOUNT HOLLY NJ
1200 AM EDT THU OCT 24 2019

NOTE:  "FAIR" INDICATES FEW OR NO CLOUDS BELOW 12,000 FEET WITH NO
SIGNIFICANT WEATHER AND/OR OBSTRUCTIONS TO VISIBILITY.

 * = STATION DOES NOT REPORT PRECIPITATION (E.G. RAIN, SNOW, ETC.) 
        OR FOG.


NJZ001>014-240500-
NORTHERN NEW JERSEY
  
CITY           SKY/WX    TMP DP  RH WIND       PRES   REMARKS
SUSSEX         LGT RAIN  39  35  86 W5        30.18R                  
ANDOVER*         N/A     40  37  89 CALM      30.18S                  
MORRISTOWN     FAIR      39  39 100 CALM      30.18R                  
NEWARK         FAIR      53  36  52 W6        30.18R                  
TETERBORO      FAIR      50  37  61 CALM      30.16R                  
CALDWELL       FAIR      48  39  71 CALM      30.18R                  
SOMERVILLE     FAIR      39  37  92 CALM      30.18R                  
ALLAIRE*       FAIR      47  40  76 SW3       30.20R                  
TOMS RIVER*    FAIR      39  32  76 CALM      30.20S                  

$$

SKY/WX - Weather  TMP - Temperature  DP - Dew Point  RH - Relative Humidity
WIND - Wind Direction/Speed PRES - Barometric Pressure VSB - Visibility
WCI - Wind Chill Index E13G22 Wind - East Wind 13 mph/Gusts of 22 mph